| time (UTC) | temp F | wind direction | speed MPH | gust MPH | rain 1hr in | rain 24hr in | rain mn in | humidity % | barometer mb |
| 20260505073430 | 43 | 345 | 3.0 | 3.0 | 0.00 | 0.00 | 0.00 | 56 | 1000.4 |
| 20260505072927 | 43 | 26 | 1.0 | 2.0 | 0.00 | 0.00 | 0.00 | 56 | 1000.1 |
| 20260505072423 | 44 | 346 | 2.0 | 2.0 | 0.00 | 0.00 | 0.00 | 55 | 1000.2 |
| 20260505071920 | 44 | 277 | 2.0 | 7.0 | 0.00 | 0.00 | 0.00 | 54 | 1000.1 |
| 20260505071415 | 44 | 50 | 3.0 | 4.0 | 0.00 | 0.00 | 0.00 | 54 | 1000.2 |
| 20260505070914 | 44 | 324 | 3.0 | 4.0 | 0.00 | 0.00 | 0.00 | 54 | 1000.0 |
| 20260505070410 | 44 | 300 | 3.0 | 3.0 | 0.00 | 0.00 | 0.00 | 53 | 1000.0 |
| 20260505065906 | 45 | 36 | 2.0 | 4.0 | 0.00 | 0.00 | 0.00 | 53 | 1000.1 |
| 20260505065402 | 44 | 321 | 3.0 | 6.0 | 0.00 | 0.00 | 0.00 | 55 | 1000.0 |
| 20260505064859 | 44 | 42 | 0.0 | 2.0 | 0.00 | 0.00 | 0.00 | 55 | 1000.1 |
| 20260505064356 | 44 | 359 | 3.0 | 4.0 | 0.00 | 0.00 | 0.00 | 54 | 1000.1 |
| 20260505063855 | 43 | 307 | 4.0 | 6.0 | 0.00 | 0.00 | 0.00 | 55 | 1000.1 |
| 20260505063355 | 43 | 330 | 2.0 | 3.0 | 0.00 | 0.00 | 0.00 | 55 | 1000.1 |
| 20260505062852 | 43 | 227 | 3.0 | 4.0 | 0.00 | 0.00 | 0.00 | 55 | 1000.0 |
| 20260505062350 | 44 | 340 | 2.0 | 7.0 | 0.00 | 0.00 | 0.00 | 55 | 1000.1 |
| 20260505061846 | 44 | 314 | 2.0 | 3.0 | 0.00 | 0.00 | 0.00 | 54 | 1000.0 |
| 20260505061344 | 44 | 258 | 3.0 | 6.0 | 0.00 | 0.00 | 0.00 | 54 | 1000.0 |
| 20260505060842 | 44 | 338 | 3.0 | 4.0 | 0.00 | 0.00 | 0.00 | 53 | 999.9 |
| 20260505060338 | 45 | 303 | 3.0 | 3.0 | 0.00 | 0.00 | 0.00 | 53 | 999.9 |
| 20260505055834 | 45 | 301 | 3.0 | 6.0 | 0.00 | 0.00 | 0.00 | 52 | 999.9 |
| 20260505055330 | 45 | 322 | 2.0 | 3.0 | 0.00 | 0.00 | 0.00 | 51 | 999.8 |
| 20260505054828 | 45 | 282 | 4.0 | 7.0 | 0.00 | 0.00 | 0.00 | 50 | 999.8 |
| 20260505054325 | 45 | 3 | 1.0 | 1.0 | 0.00 | 0.00 | 0.00 | 51 | 999.7 |
| 20260505053823 | 45 | 10 | 0.0 | 4.0 | 0.00 | 0.00 | 0.00 | 51 | 999.8 |
| 20260505053320 | 46 | 294 | 4.0 | 4.0 | 0.00 | 0.00 | 0.00 | 50 | 999.6 |
| 20260505052817 | 46 | 303 | 2.0 | 6.0 | 0.00 | 0.00 | 0.00 | 50 | 999.7 |
| 20260505052314 | 46 | 20 | 2.0 | 3.0 | 0.00 | 0.00 | 0.00 | 50 | 999.7 |
| 20260505051811 | 46 | 39 | 1.0 | 4.0 | 0.00 | 0.00 | 0.00 | 50 | 999.5 |
| 20260505051308 | 46 | 286 | 3.0 | 6.0 | 0.00 | 0.00 | 0.00 | 49 | 999.5 |
| 20260505050806 | 47 | 330 | 4.0 | 6.0 | 0.00 | 0.00 | 0.00 | 48 | 999.4 |
| 20260505050305 | 47 | 6 | 2.0 | 6.0 | 0.00 | 0.00 | 0.00 | 48 | 999.6 |
| 20260505041734 | 48 | 321 | 2.0 | 6.0 | 0.00 | 0.00 | 0.00 | 46 | 998.4 |
| 20260505041231 | 48 | 300 | 3.0 | 7.0 | 0.00 | 0.00 | 0.00 | 46 | 998.4 |
| 20260505040729 | 48 | 324 | 4.0 | 6.0 | 0.00 | 0.00 | 0.00 | 45 | 998.1 |
| 20260505040226 | 49 | 292 | 7.0 | 11.0 | 0.00 | 0.00 | 0.00 | 45 | 998.2 |
| 20260505035723 | 49 | 49 | 6.0 | 10.0 | 0.00 | 0.01 | 0.01 | 44 | 998.2 |
| 20260505035219 | 49 | 316 | 3.0 | 9.0 | 0.00 | 0.01 | 0.01 | 45 | 998.0 |
| 20260505034715 | 49 | 300 | 5.0 | 7.0 | 0.00 | 0.01 | 0.01 | 45 | 998.0 |
| 20260505034213 | 50 | 321 | 2.0 | 3.0 | 0.00 | 0.01 | 0.01 | 45 | 997.9 |
| 20260505033708 | 50 | 273 | 2.0 | 4.0 | 0.00 | 0.01 | 0.01 | 45 | 997.8 |
| 20260505033207 | 50 | 246 | 7.0 | 9.0 | 0.00 | 0.01 | 0.01 | 44 | 997.9 |
| 20260505032705 | 50 | 253 | 5.0 | 11.0 | 0.00 | 0.01 | 0.01 | 43 | 997.7 |
| 20260505032200 | 51 | 302 | 11.0 | 13.0 | 0.00 | 0.01 | 0.01 | 42 | 997.7 |
| 20260505031658 | 51 | 278 | 9.0 | 13.0 | 0.00 | 0.01 | 0.01 | 43 | 997.7 |
| 20260505031154 | 51 | 287 | 13.0 | 15.0 | 0.00 | 0.01 | 0.01 | 42 | 997.4 |
| 20260505030651 | 51 | 306 | 4.0 | 14.0 | 0.00 | 0.01 | 0.01 | 42 | 997.3 |
| 20260505030147 | 51 | 265 | 9.0 | 14.0 | 0.00 | 0.01 | 0.01 | 42 | 997.1 |
| 20260505025643 | 51 | 309 | 9.0 | 14.0 | 0.00 | 0.01 | 0.01 | 42 | 997.1 |
| 20260505025142 | 52 | 337 | 9.0 | 18.0 | 0.00 | 0.01 | 0.01 | 42 | 997.0 |
| 20260505024639 | 53 | 285 | 9.0 | 13.0 | 0.00 | 0.01 | 0.01 | 42 | 997.0 |
| 20260505024136 | 53 | 254 | 5.0 | 15.0 | 0.00 | 0.01 | 0.01 | 44 | 997.1 |
| 20260505023633 | 53 | 290 | 6.0 | 13.0 | 0.00 | 0.01 | 0.01 | 44 | 996.7 |
| 20260505023131 | 53 | 346 | 6.0 | 7.0 | 0.00 | 0.01 | 0.01 | 45 | 996.5 |
| 20260505022628 | 53 | 5 | 3.0 | 8.0 | 0.00 | 0.01 | 0.01 | 45 | 996.4 |
| 20260505022125 | 53 | 286 | 6.0 | 10.0 | 0.00 | 0.01 | 0.01 | 45 | 996.4 |
| 20260505021621 | 53 | 288 | 9.0 | 13.0 | 0.00 | 0.01 | 0.01 | 45 | 996.4 |
| 20260505021118 | 53 | 291 | 8.0 | 10.0 | 0.00 | 0.01 | 0.01 | 48 | 996.4 |
| 20260505020614 | 53 | 287 | 9.0 | 13.0 | 0.00 | 0.01 | 0.01 | 53 | 996.2 |
| 20260505020110 | 52 | 337 | 1.0 | 4.0 | 0.00 | 0.01 | 0.01 | 58 | 996.0 |
| 20260505015607 | 52 | 42 | 2.0 | 3.0 | 0.00 | 0.01 | 0.01 | 61 | 996.0 |
| 20260505015104 | 52 | 17 | 1.0 | 1.0 | 0.00 | 0.01 | 0.01 | 62 | 995.8 |
| 20260505014601 | 52 | 28 | 0.0 | 1.0 | 0.00 | 0.01 | 0.01 | 61 | 995.6 |
| 20260505014058 | 52 | 359 | 2.0 | 4.0 | 0.00 | 0.01 | 0.01 | 62 | 995.6 |
| 20260505013555 | 51 | 338 | 2.0 | 2.0 | 0.00 | 0.01 | 0.01 | 64 | 995.3 |
| 20260505013052 | 51 | 333 | 1.0 | 2.0 | 0.00 | 0.01 | 0.01 | 66 | 995.2 |
| 20260505012550 | 51 | 38 | 1.0 | 1.0 | 0.00 | 0.01 | 0.01 | 67 | 995.1 |
| 20260505012047 | 51 | 48 | 4.0 | 4.0 | 0.00 | 0.01 | 0.01 | 66 | 994.8 |
| 20260505011543 | 51 | 51 | 1.0 | 3.0 | 0.00 | 0.01 | 0.01 | 68 | 994.8 |
| 20260505011040 | 51 | 63 | 2.0 | 3.0 | 0.00 | 0.01 | 0.01 | 69 | 994.6 |
| 20260505010535 | 51 | 43 | 2.0 | 3.0 | 0.00 | 0.01 | 0.01 | 69 | 994.4 |
| 20260505010032 | 51 | 50 | 2.0 | 4.0 | 0.00 | 0.01 | 0.01 | 68 | 994.2 |
| 20260505005528 | 51 | 46 | 2.0 | 2.0 | 0.00 | 0.01 | 0.01 | 69 | 994.2 |
| 20260505005026 | 51 | 41 | 4.0 | 7.0 | 0.00 | 0.01 | 0.01 | 68 | 994.3 |
| 20260505004523 | 52 | 35 | 4.0 | 6.0 | 0.00 | 0.01 | 0.01 | 66 | 994.0 |
| 20260505004020 | 53 | 4 | 3.0 | 7.0 | 0.00 | 0.01 | 0.01 | 65 | 994.1 |
| 20260505003517 | 53 | 47 | 4.0 | 7.0 | 0.00 | 0.01 | 0.01 | 60 | 993.9 |
| 20260505003014 | 53 | 66 | 7.0 | 9.0 | 0.00 | 0.01 | 0.01 | 60 | 993.9 |
| 20260505002509 | 53 | 33 | 6.0 | 9.0 | 0.00 | 0.01 | 0.01 | 64 | 993.8 |
| 20260505002008 | 54 | 14 | 6.0 | 8.0 | 0.00 | 0.01 | 0.01 | 61 | 993.6 |
| 20260505001505 | 54 | 44 | 7.0 | 9.0 | 0.00 | 0.01 | 0.01 | 60 | 993.5 |
| 20260505001002 | 54 | 46 | 3.0 | 7.0 | 0.00 | 0.01 | 0.01 | 60 | 993.6 |
| 20260505000500 | 55 | 59 | 7.0 | 10.0 | 0.00 | 0.01 | 0.01 | 61 | 993.4 |
| 20260504235956 | 55 | 63 | 7.0 | 11.0 | 0.00 | 0.01 | 0.01 | 59 | 993.3 |
| 20260504235454 | 55 | 57 | 5.0 | 10.0 | 0.00 | 0.01 | 0.01 | 60 | 993.1 |
| 20260504234950 | 55 | 54 | 6.0 | 10.0 | 0.00 | 0.01 | 0.01 | 64 | 993.1 |
| 20260504234447 | 56 | 38 | 4.0 | 8.0 | 0.00 | 0.01 | 0.01 | 63 | 992.9 |
| 20260504233944 | 56 | 43 | 3.0 | 4.0 | 0.00 | 0.01 | 0.01 | 64 | 992.7 |
| 20260504233439 | 56 | 51 | 3.0 | 6.0 | 0.00 | 0.01 | 0.01 | 65 | 992.9 |
| 20260504232937 | 56 | 9 | 2.0 | 3.0 | 0.00 | 0.01 | 0.01 | 65 | 992.8 |
| 20260504232434 | 57 | 47 | 3.0 | 7.0 | 0.00 | 0.01 | 0.01 | 64 | 992.5 |
| 20260504231931 | 59 | 50 | 6.0 | 7.0 | 0.00 | 0.01 | 0.01 | 60 | 992.7 |
| 20260504231427 | 59 | 69 | 0.0 | 1.0 | 0.00 | 0.01 | 0.01 | 59 | 992.7 |
| 20260504230923 | 59 | 49 | 2.0 | 3.0 | 0.00 | 0.01 | 0.01 | 59 | 992.5 |
| 20260504230420 | 61 | 42 | 1.0 | 4.0 | 0.00 | 0.01 | 0.01 | 57 | 992.4 |
| 20260504225920 | 61 | 344 | 1.0 | 2.0 | 0.00 | 0.01 | 0.01 | 55 | 992.5 |
| 20260504225416 | 60 | 59 | 0.0 | 2.0 | 0.00 | 0.01 | 0.01 | 58 | 992.5 |
| 20260504224914 | 59 | 49 | 2.0 | 7.0 | 0.00 | 0.01 | 0.01 | 58 | 992.3 |
| 20260504224410 | 59 | 39 | 1.0 | 2.0 | 0.00 | 0.01 | 0.01 | 58 | 992.4 |
| 20260504223907 | 58 | 52 | 0.0 | 2.0 | 0.00 | 0.01 | 0.01 | 60 | 992.4 |
| 20260504223402 | 57 | 47 | 1.0 | 3.0 | 0.00 | 0.01 | 0.01 | 62 | 992.3 |
| 20260504222858 | 57 | 47 | 2.0 | 3.0 | 0.00 | 0.01 | 0.01 | 63 | 992.3 |
| 20260504222355 | 57 | 49 | 1.0 | 3.0 | 0.00 | 0.01 | 0.01 | 63 | 992.2 |
| 20260504221854 | 57 | 58 | 2.0 | 3.0 | 0.00 | 0.01 | 0.01 | 63 | 991.9 |
| 20260504221350 | 57 | 38 | 2.0 | 6.0 | 0.00 | 0.01 | 0.01 | 63 | 991.8 |
| 20260504220847 | 57 | 43 | 4.0 | 7.0 | 0.00 | 0.01 | 0.01 | 63 | 991.8 |
| 20260504220344 | 58 | 55 | 4.0 | 7.0 | 0.00 | 0.01 | 0.01 | 61 | 991.4 |
| 20260504215842 | 59 | 33 | 2.0 | 4.0 | 0.00 | 0.01 | 0.01 | 59 | 991.8 |
| 20260504215337 | 59 | 72 | 3.0 | 4.0 | 0.00 | 0.01 | 0.01 | 58 | 991.3 |
| 20260504214834 | 59 | 42 | 2.0 | 4.0 | 0.00 | 0.01 | 0.01 | 59 | 990.8 |
| 20260504214331 | 59 | 56 | 2.0 | 4.0 | 0.00 | 0.01 | 0.01 | 58 | 991.2 |
| 20260504213827 | 59 | 51 | 4.0 | 8.0 | 0.00 | 0.01 | 0.01 | 57 | 991.1 |
| 20260504213323 | 60 | 48 | 4.0 | 6.0 | 0.00 | 0.01 | 0.01 | 58 | 991.4 |
| 20260504212821 | 60 | 32 | 1.0 | 4.0 | 0.00 | 0.01 | 0.01 | 57 | 991.1 |
| 20260504212317 | 59 | 57 | 3.0 | 6.0 | 0.00 | 0.01 | 0.01 | 57 | 991.2 |
| 20260504211815 | 60 | 43 | 4.0 | 8.0 | 0.00 | 0.01 | 0.01 | 58 | 991.0 |
| 20260504211310 | 60 | 45 | 5.0 | 7.0 | 0.00 | 0.01 | 0.01 | 57 | 991.0 |
| 20260504210808 | 60 | 66 | 4.0 | 7.0 | 0.00 | 0.01 | 0.01 | 58 | 990.8 |
| 20260504210306 | 60 | 35 | 7.0 | 10.0 | 0.00 | 0.01 | 0.01 | 58 | 990.7 |
| 20260504205802 | 60 | 54 | 5.0 | 8.0 | 0.00 | 0.01 | 0.01 | 59 | 990.6 |
| 20260504205300 | 60 | 41 | 5.0 | 9.0 | 0.00 | 0.01 | 0.01 | 59 | 990.6 |
| 20260504204758 | 60 | 86 | 5.0 | 9.0 | 0.00 | 0.01 | 0.01 | 58 | 990.5 |
| 20260504204256 | 60 | 34 | 6.0 | 8.0 | 0.00 | 0.01 | 0.01 | 58 | 990.5 |
| 20260504203755 | 60 | 41 | 4.0 | 7.0 | 0.00 | 0.01 | 0.01 | 57 | 990.4 |
| 20260504203252 | 61 | 31 | 5.0 | 6.0 | 0.00 | 0.01 | 0.01 | 56 | 990.5 |
| 20260504202747 | 63 | 50 | 6.0 | 9.0 | 0.00 | 0.01 | 0.01 | 53 | 990.3 |
| 20260504202245 | 63 | 59 | 7.0 | 9.0 | 0.00 | 0.01 | 0.01 | 51 | 989.8 |
| 20260504201741 | 64 | 35 | 6.0 | 10.0 | 0.00 | 0.01 | 0.01 | 49 | 990.0 |
| 20260504201238 | 64 | 45 | 9.0 | 14.0 | 0.00 | 0.01 | 0.01 | 48 | 990.1 |
| 20260504200737 | 66 | 22 | 11.0 | 11.0 | 0.00 | 0.01 | 0.01 | 45 | 990.1 |
| 20260504200232 | 66 | 51 | 3.0 | 8.0 | 0.00 | 0.01 | 0.01 | 45 | 989.8 |
| 20260504195729 | 66 | 45 | 1.0 | 4.0 | 0.00 | 0.01 | 0.01 | 44 | 989.9 |
| 20260504195225 | 66 | 38 | 2.0 | 6.0 | 0.00 | 0.01 | 0.01 | 46 | 989.9 |
| 20260504194722 | 65 | 54 | 6.0 | 7.0 | 0.00 | 0.01 | 0.01 | 45 | 989.8 |
| 20260504194218 | 66 | 51 | 2.0 | 4.0 | 0.00 | 0.01 | 0.01 | 45 | 989.7 |
| 20260504193714 | 67 | 39 | 4.0 | 8.0 | 0.00 | 0.01 | 0.01 | 45 | 989.6 |
| 20260504193212 | 72 | 48 | 4.0 | 8.0 | 0.00 | 0.01 | 0.01 | 38 | 989.6 |
| 20260504192710 | 72 | 238 | 1.0 | 7.0 | 0.00 | 0.01 | 0.01 | 32 | 989.6 |
| 20260504192208 | 67 | 232 | 3.0 | 7.0 | 0.00 | 0.01 | 0.01 | 36 | 989.7 |
| 20260504191706 | 66 | 46 | 3.0 | 4.0 | 0.00 | 0.01 | 0.01 | 43 | 989.7 |
| 20260504191203 | 66 | 57 | 4.0 | 4.0 | 0.00 | 0.01 | 0.01 | 43 | 989.6 |
| 20260504190658 | 66 | 209 | 2.0 | 4.0 | 0.00 | 0.01 | 0.01 | 45 | 989.7 |
| 20260504190155 | 67 | 24 | 2.0 | 4.0 | 0.00 | 0.01 | 0.01 | 43 | 989.5 |
| 20260504185651 | 66 | 98 | 0.0 | 4.0 | 0.00 | 0.01 | 0.01 | 43 | 989.6 |
| 20260504185148 | 72 | 29 | 6.0 | 9.0 | 0.00 | 0.01 | 0.01 | 39 | 989.4 |
| 20260504184644 | 73 | 286 | 5.0 | 9.0 | 0.00 | 0.01 | 0.01 | 33 | 989.4 |
| 20260504184139 | 72 | 358 | 1.0 | 8.0 | 0.00 | 0.01 | 0.01 | 33 | 989.5 |
| 20260504183636 | 72 | 315 | 6.0 | 9.0 | 0.00 | 0.01 | 0.01 | 33 | 989.4 |
| 20260504183134 | 72 | 344 | 4.0 | 11.0 | 0.00 | 0.01 | 0.01 | 33 | 989.5 |
| 20260504182631 | 71 | 259 | 6.0 | 9.0 | 0.00 | 0.01 | 0.01 | 34 | 989.5 |
| 20260504182129 | 71 | 250 | 4.0 | 7.0 | 0.00 | 0.01 | 0.01 | 35 | 989.5 |
| 20260504181626 | 71 | 93 | 3.0 | 7.0 | 0.00 | 0.01 | 0.01 | 34 | 989.3 |
| 20260504181123 | 71 | 285 | 6.0 | 10.0 | 0.00 | 0.01 | 0.01 | 34 | 989.2 |
| 20260504180622 | 72 | 332 | 6.0 | 16.0 | 0.00 | 0.01 | 0.01 | 33 | 989.3 |
| 20260504180121 | 72 | 264 | 6.0 | 11.0 | 0.00 | 0.01 | 0.01 | 34 | 989.2 |
| 20260504175618 | 73 | 242 | 9.0 | 16.0 | 0.00 | 0.01 | 0.01 | 32 | 989.2 |
| 20260504175114 | 72 | 292 | 5.0 | 9.0 | 0.00 | 0.01 | 0.01 | 33 | 989.4 |
| 20260504174613 | 73 | 263 | 14.0 | 17.0 | 0.00 | 0.01 | 0.01 | 32 | 989.2 |
| 20260504174109 | 72 | 271 | 7.0 | 16.0 | 0.00 | 0.01 | 0.01 | 33 | 989.3 |
| 20260504173606 | 72 | 274 | 11.0 | 15.0 | 0.00 | 0.01 | 0.01 | 33 | 989.2 |
| 20260504173104 | 66 | 262 | 11.0 | 16.0 | 0.00 | 0.01 | 0.01 | 37 | 989.3 |
| 20260504172559 | 66 | 99 | 2.0 | 3.0 | 0.00 | 0.01 | 0.01 | 48 | 989.2 |
| 20260504172056 | 63 | 217 | 4.0 | 7.0 | 0.00 | 0.01 | 0.01 | 47 | 989.3 |
| 20260504171553 | 61 | 151 | 5.0 | 8.0 | 0.00 | 0.01 | 0.01 | 52 | 989.5 |
| 20260504171050 | 61 | 184 | 5.0 | 7.0 | 0.00 | 0.01 | 0.01 | 53 | 989.5 |
| 20260504170545 | 61 | 126 | 3.0 | 4.0 | 0.00 | 0.01 | 0.01 | 52 | 989.5 |
| 20260504150930 | 56 | 154 | 7.0 | 13.0 | 0.00 | 0.01 | 0.01 | 61 | 990.4 |
| 20260504150426 | 55 | 91 | 4.0 | 13.0 | 0.00 | 0.01 | 0.01 | 62 | 990.0 |
| 20260504140853 | 54 | 203 | 4.0 | 18.0 | 0.00 | 0.01 | 0.01 | 64 | 991.5 |
| 20260504140349 | 53 | 290 | 7.0 | 8.0 | 0.07 | 0.01 | 0.01 | 65 | 991.6 |
| 20260504130817 | 50 | 216 | 5.0 | 8.0 | 0.00 | 0.00 | 0.00 | 78 | 993.1 |
| 20260504130314 | 50 | 141 | 3.0 | 3.0 | 0.00 | 0.00 | 0.00 | 78 | 993.3 |
| 20260504110259 | 46 | 171 | 2.0 | 4.0 | 0.00 | 0.00 | 0.00 | 86 | 995.1 |
| 20260504100222 | 44 | 177 | 3.0 | 6.0 | 0.00 | 0.00 | 0.00 | 87 | 996.0 |
| 20260504081615 | 37 | 73 | 0.0 | 0.0 | 0.00 | 0.00 | 0.00 | 98 | 997.5 |
| 20260504081111 | 37 | 73 | 0.0 | 0.0 | 0.00 | 0.00 | 0.00 | 98 | 997.8 |
| 20260504080609 | 37 | 73 | 0.0 | 0.0 | 0.00 | 0.00 | 0.00 | 98 | 997.9 |
| 20260504080105 | 37 | 73 | 0.0 | 0.0 | 0.00 | 0.00 | 0.00 | 98 | 997.9 |